Weather History for Poughkeepsie, NY

Change the Weather History Date:

Thursday, August 23, 2012

  Actual Average Record
Temperature  
Mean Temperature 72 °F 70 °F  
Max Temperature 85 °F 82 °F 89 °F (1966)
Min Temperature 59 °F 59 °F 43 °F (1952)
Degree Days  
Heating Degree Days 0 1  
Month to date heating degree days 2 1  
Since 1 June heating degree days 33 55  
Since 1 July heating degree days 2 6  
Cooling Degree Days 7 6  
Month to date cooling degree days 198 162  
Year to date cooling degree days 770 565  
Since 1 June cooling degree days 675 529  
Growing Degree Days 22 (Base 50)    
Moisture  
Dew Point 60 °F    
Average Humidity 64    
Maximum Humidity 93    
Minimum Humidity 34    
Precipitation  
Precipitation 0.00 in 0.12 in 2.53 in (1970)
Month to date precipitation 3.05 3.26  
Year to date precipitation 21.64 29.84  
Sea Level Pressure  
Sea Level Pressure 30.11 in    
Wind  
Wind Speed 2 mph (SW)    
Max Wind Speed 10 mph    
Max Gust Speed 13 mph    
Visibility 9 miles    
Events      
T = Trace of Precipitation, MM = Missing Value Source: NWS Daily Summary

Daily Weather History Graph

Daily Weather History Graph

Search for Another Location

Airport:

Trip Planner

Search our weather history database for the weather conditions in past years. The results will help you decide how hot, cold, wet, or windy it might be!

Date:

Astronomy

Aug. 23, 2012 Rise Set
Actual Time 6:12 AM EDT 7:42 PM EDT
Civil Twilight 5:43 AM EDT 8:11 PM EDT
Nautical Twilight 5:08 AM EDT 8:46 PM EDT
Astronomical Twilight 4:31 AM EDT 9:23 PM EDT
Moon 1:03 PM EDT (8/23) 11:02 PM EDT (8/23)
Length of Visible Light 14h 27m
Length of Day
13h 29m
Waxing Crescent, 40% of the Moon is Illuminated
Aug 23
Waxing Crescent
Aug 24
First Quarter
Aug 31
Full
Sep 8
Last Quarter
Sep 15
New

Hourly Weather History & Observations

Time (EDT) Temp. Heat Index Dew Point Humidity Pressure Visibility Wind Dir Wind Speed Gust Speed Precip Events Conditions
12:53 AM 63.0 °F - 60.1 °F 90% 30.13 in 7.0 mi Calm Calm - N/A   Clear
1:53 AM 62.1 °F - 60.1 °F 93% 30.12 in 7.0 mi Calm Calm - N/A   Clear
2:53 AM 62.1 °F - 59.0 °F 90% 30.12 in 8.0 mi Calm Calm - N/A   Clear
3:53 AM 61.0 °F - 57.9 °F 90% 30.13 in 7.0 mi Calm Calm - N/A   Clear
4:53 AM 60.8 °F - 57.2 °F 88% 30.14 in 6.0 mi Calm Calm - N/A   Clear
5:53 AM 60.1 °F - 57.9 °F 93% 30.13 in 5.0 mi Calm Calm - N/A   Clear
6:53 AM 60.1 °F - 57.9 °F 93% 30.14 in 7.0 mi Calm Calm - N/A   Clear
7:53 AM 64.9 °F - 61.0 °F 87% 30.14 in 8.0 mi Calm Calm - N/A   Clear
8:53 AM 69.1 °F - 64.0 °F 84% 30.14 in 10.0 mi Calm Calm - N/A   Clear
9:53 AM 73.0 °F - 64.0 °F 73% 30.14 in 10.0 mi WSW 3.5 mph - N/A   Clear
10:53 AM 77.0 °F - 64.0 °F 64% 30.14 in 10.0 mi Variable 3.5 mph - N/A   Clear
11:53 AM 80.1 °F 81.2 °F 62.1 °F 54% 30.13 in 10.0 mi Calm Calm - N/A   Clear
12:53 PM 82.9 °F 84.0 °F 63.0 °F 51% 30.11 in 10.0 mi Calm Calm - N/A   Partly Cloudy
1:53 PM 84.0 °F 83.5 °F 57.9 °F 41% 30.10 in 10.0 mi SW 6.9 mph - N/A   Partly Cloudy
2:53 PM 84.9 °F 83.3 °F 54.0 °F 34% 30.09 in 10.0 mi Variable 4.6 mph - N/A   Partly Cloudy
3:53 PM 84.9 °F 83.9 °F 57.0 °F 38% 30.08 in 10.0 mi SW 6.9 mph - N/A   Partly Cloudy
4:53 PM 84.9 °F 83.6 °F 55.0 °F 36% 30.08 in 10.0 mi WSW 8.1 mph - N/A   Clear
5:53 PM 84.0 °F 82.6 °F 54.0 °F 35% 30.07 in 10.0 mi SW 5.8 mph - N/A   Clear
6:53 PM 82.0 °F 82.0 °F 57.9 °F 44% 30.07 in 10.0 mi Calm Calm - N/A   Clear
7:53 PM 72.0 °F - 62.1 °F 71% 30.08 in 10.0 mi Calm Calm - N/A   Clear
8:53 PM 71.1 °F - 64.0 °F 78% 30.09 in 10.0 mi Calm Calm - N/A   Mostly Cloudy
9:53 PM 66.9 °F - 63.0 °F 87% 30.10 in 9.0 mi Calm Calm - N/A   Clear
10:53 PM 66.0 °F - 62.1 °F 87% 30.11 in 7.0 mi Calm Calm - N/A   Clear
11:53 PM 64.0 °F - 62.1 °F 93% 30.12 in 6.0 mi Calm Calm - N/A   Clear